Weather in Bu么n Ma Thu峄檛

Vietnam     12掳40鈥33鈥砃   108掳02鈥52鈥矱
temp.,
掳C
wind,
m/s
gust,
m/s
humid.,
%
clouds,
%
prec.,
mm/h
press.,
hPa
HPBL,
m
20 june, sun
sun2001:00+22sse249535 0.6 100993
04:00+21sse13966 0.0 100986
07:00+24s2487100 0.0 1010205
10:00+30wnw355890 0.0 10091388
13:00+31wnw365692 0.1 10071167
16:00+32wnw465290 0.1 10051440
19:00+24se118999 2.4 100712
22:00+22sse279478 0.0 1009153
21 june, mon
mon2101:00+22s149450 0.0 100890
04:00+21s2696100 0.0 1008194
07:00+24s26879 0.0 1009280
10:00+30w365771 0.6 10081567
13:00+28wnw147697 2.3 1007605
16:00+28w377147 1.6 1005724
19:00+24sw119085 3.3 100814
22:00+22sse2395100 0.9 101072
22 june, tue
tue2201:00+22sse2896100 0.9 1008223
04:00+21s179631 0.3 1008200
07:00+24ssw14876 0.4 1009252
10:00+30wnw245934 0.0 10091224
13:00+28w357723 2.1 1008932
16:00+27wsw25835 3.5 1007386
19:00+23sw119274 4.4 100911
22:00+22s2496100 0.8 101197
23 june, wed
wed2301:00+21sse2697100 0.8 1010215
04:00+21s1598100 0.0 1009162
07:00+23wsw1392100 0.0 1011163
10:00+29w2460100 0.0 10111065
13:00+29nw356591 0.4 1008877
16:00+28wnw356994 1.0 1007745
19:00+23wnw1292100 1.9 100937
22:00+23se1193100 0.0 101114
24 june, thu
thu2401:00+22sse1295100 0.0 100950
04:00+22s149498 0.0 1008126
07:00+24sw128690 0.0 1009213
10:00+30w245949 0.0 10091276
13:00+30nw3458100 0.1 1006911
16:00+27wnw3678100 1.0 1005494
19:00+23w1192100 2.4 100723
22:00+23s1195100 0.0 100918